Regional Weather Roundup
Issued by NWS

Home | Current Version | Previous Version | Text Only | Print | Product List | Glossary Off
Versions: 1 2 3 4 5 6 7 8 9 10 11 12 13 14 15 16 17 18 19 20 21 22 23 24 25 26 27 28 29 30 31 32 33 34 35 36 37 38 39 40 41 42 43 44 45 46 47 48 49 50

000
ASUS43 KLMK 221102
RWRKY
KENTUCKY REGIONAL WEATHER ROUNDUP
NATIONAL WEATHER SERVICE LOUISVILLE KY
700 AM EDT MON MAY 22 2017

NOTE "FAIR" INDICATES FEW OR NO CLOUDS BELOW 12,000 FEET
WITH NO SIGNIFICANT WEATHER AND/OR OBSTRUCTIONS TO VISIBILITY.

KYZ001>023-026-027-061>063-070>075-221200-
WESTERN AND SOUTH CENTRAL KENTUCKY

CITY           SKY/WX    TMP DP  RH WIND       PRES   REMARKS
PADUCAH        MOCLDY    53  49  86 CALM      30.15R
HENDERSON      PTCLDY    52  51  97 CALM      30.14R
OWENSBORO      PTCLDY    54  51  90 S3        30.14R
HOPKINSVILLE   PTCLDY    56  51  82 CALM      30.16R
BOWLING GREEN  CLOUDY    56  53  90 CALM      30.15R
GLASGOW        NOT AVBL
$$

KYZ024-025-028>034-038-045-046-053-221200-
NORTH CENTRAL KENTUCKY

CITY           SKY/WX    TMP DP  RH WIND       PRES   REMARKS
LOUISVILLE/SDF MOCLDY    56  46  69 CALM      30.13S
LOUISVILLE/LOU CLOUDY    51  49  92 CALM      30.14R
FORT KNOX      PTCLDY    49  48  95 CALM      30.13R
$$

KYZ035>037-039>044-047>052-055>060-089>105-221200-
NORTHEAST KENTUCKY

CITY           SKY/WX    TMP DP  RH WIND       PRES   REMARKS
LEXINGTON      CLOUDY    53  43  68 N3        30.14S
COVINGTON      MOCLDY    48  44  86 SW3       30.12R
FRANKFORT      CLOUDY    50  47  89 CALM      30.12S
$$

KYZ054-064>069-076>088-106>120-221200-
SOUTHEAST KENTUCKY

CITY           SKY/WX    TMP DP  RH WIND       PRES   REMARKS
JACKSON        CLOUDY    58  53  84 VRB7      30.13R
LONDON         CLOUDY    59  53  80 N9        30.13R
SOMERSET       NOT AVBL
MIDDLESBORO    CLOUDY    64  61  90 N5        30.11R
MONTICELLO     NOT AVBL
$$





USA.gov is the U.S. government's official web portal to all federal, state and local government web resources and services.